Showing default

T-MICROSAT-1, 66766

Orbit data source: Space-Track

T-MICROSAT-1, 66766 is a Taiwanese payload satellite in SSO that was launched on Fri, 28 Nov 2025 UTC via an FALCON 9 launch vehicle from the Air Force Western Test Range (AFWTR). Payload-class satellites include a variety of spacecraft equipped with specific instruments for various scientific and technological missions. These include communications satellites like Starlink; space stations such as the ISS; scientific satellites like the Hubble; Earth observation satellites from companies like Planet Labs, Umbra, and HawkEye 360; GPS; miniature CubeSats for education and research; and military/defense satellites.

Loading next visibility...
Identifier
66766, 2025-276DE
Orbit
SSO
Country
Flag of TWTW / TWN
Related business
Manufacturer
TRON
Mission
Operational Commercial Communications
Bus & Motor
CUBESAT 8U, Unknown motor
Mass
15 kg wet, ~15 kg dry
Launch date (UTC)
2025-11-28 (2 months ago)
Launch vehicle
FALCON 9
Launch site
Air Force Western Test Range (AFWTR)
Object type
Payload
Rocket body
Debris
Shape & HBR
Box, 0.2 m
Radar Cross Section
0.100 m²

Expand to show TLE details & history
Last TLE update: 22 hours ago

TLE from 22 hours ago
0 T-MICROSAT-1
1 66766U 25276DE  26034.17713303  .00007012  00000-0  33710-3 0  9990
2 66766  97.4298 110.0837 0000673  82.3629 277.7682 15.19118730 10082
Epoch: 2026-02-03T04:15Z
TLE epoch observation values (Epoch: 2026-02-03T04:15:04.293Z)
Latitude
-0.00004°
Longitude
-87.04599°
Altitude
511.529 km
Speed
7.608 km/s
True Right ascension
07h 20m 20s
True Declination
0° 00' 00"
Sunlit
Object was in full shadow at epoch
Visualization orbit readout
Latitude
Unknown
Longitude
Unknown
Altitude
Unknown
Speed
Unknown
Apparent Right ascension
Unknown
Apparent Declination
Unknown
Sunlit
N/A
Visualization observer readout
Local Sidereal Time
04:09:59
Azimuth
Unknown
Elevation
Unknown
Doppler factor
Unknown
Orbital elements
Apogee altitude
505.934 km
Perigee altitude
505.007 km
Semi-major axis
6,883.608 km
Eccentricity
0.00007
Inclination
97.4298°
RAAN
110.0837°
Arg. of periapsis
82.3629°
True anomaly
277.76056°
Mean anomaly
277.7682°
Eccentric anomaly
277.76438°
Mean motion
3.80031 °/min
Orbital period
94.73 mins
BSTAR
0.0003371
Loading maneuver chart data...
Computing Atmospheric mass density...
Loading historical data...
Loading historical data...
Loading historical data...
Loading historical data...
Loading historical data...
Loading historical data...
Loading historical data...

Documentation

Showing up to 5 results
|